STARLINK-35261, 65595

Orbit data source: Space-Track

STARLINK-35261, 65595 is a payload satellite owned by SpaceX/Seattle (US) in SSO that was launched on Sat, 13 Sep 2025 UTC via an FALCON 9 launch vehicle from the Air Force Eastern Test Range (AFETR). Payload-class satellites include a variety of spacecraft equipped with specific instruments for various scientific and technological missions. These include communications satellites like Starlink; space stations such as the ISS; scientific satellites like the Hubble; Earth observation satellites from companies like Planet Labs, Umbra, and HawkEye 360; GPS; miniature CubeSats for education and research; and military/defense satellites.

Loading next visibility...
Identifier
65595, 2025-207D
Orbit
SSO
Country
Flag of USUS
Related business
Manufacturer
SpaceX/Seattle
Mission
Operational Commercial Communications
Bus & Motor
STARLINK V2MO, Unknown motor
Mass
575 kg wet, ~530 kg dry
Launch date (UTC)
2025-09-13 (9 months ago)
Launch vehicle
FALCON 9
Launch site
Air Force Eastern Test Range (AFETR)
Object type
Payload
Rocket body
Debris
Shape & HBR
Box + 2 Pan, 17.7 m
Radar Cross Section
36.964 m², Large (>1 m²)

Expand to show TLE details & history
Last TLE update: 6 hours ago

TLE from 6 hours ago
0 STARLINK-35261
1 65595U 25207D   26166.90661049  .00007876  00000-0  54890-3 0  9999
2 65595  97.3536 234.5870 0001639 120.8244 239.3145 15.05673535 43042
Epoch: 2026-06-15T21:45Z
TLE epoch observation values (Epoch: 2026-06-15T21:45:31.146Z)
Latitude
-0.00001°
Longitude
4.02095°
Altitude
553.091 km
Speed
7.585 km/s
True Right ascension
15h 38m 20s
True Declination
0° 00' 00"
Sunlit
Object was in full shadow at epoch
Visualization orbit readout
Latitude
Unknown
Longitude
Unknown
Altitude
Unknown
Speed
Unknown
Apparent Right ascension
Unknown
Apparent Declination
Unknown
Sunlit
N/A
Visualization observer readout
Local Sidereal Time
14:41:44
Azimuth
Unknown
Elevation
Unknown
Doppler factor
Unknown
Orbital elements
Apogee altitude
547.557 km
Perigee altitude
545.287 km
Semi-major axis
6,924.559 km
Eccentricity
0.00016
Inclination
97.3536°
RAAN
234.587°
Arg. of periapsis
120.8244°
True anomaly
239.29835°
Mean anomaly
239.3145°
Eccentric anomaly
239.30642°
Mean motion
3.76665 °/min
Orbital period
95.58 mins
BSTAR
0.0005489
Loading maneuver chart data...
Computing Atmospheric mass density...
Loading historical data...
Loading historical data...
Loading historical data...
Loading historical data...
Loading historical data...
Loading historical data...
Loading historical data...

Documentation

Showing up to 5 results
|